Weather History for KSHL - April, 2013

Change the Weather History Date:

Monday, April 29, 2013

  Actual Average Record
Temperature  
Mean Temperature 60 °F -  
Max Temperature 78 °F 65 °F 96 °F (2007)
Min Temperature 42 °F 40 °F 20 °F (1958)
Degree Days  
Heating Degree Days 5    
Growing Degree Days 10 (Base 50)    
Moisture  
Dew Point 45 °F    
Average Humidity 59    
Maximum Humidity 100    
Minimum Humidity 32    
Precipitation  
Precipitation 0.00 in - - ()
Sea Level Pressure  
Sea Level Pressure 29.69 in    
Wind  
Wind Speed 11 mph (East)    
Max Wind Speed 17 mph    
Max Gust Speed 23 mph    
Visibility 10 miles    
Events      
Averages and records for this station are not official NWS values.
T = Trace of Precipitation, MM = Missing Value Source: NWS Daily Summary

Daily Weather History Graph

Daily Weather History Graph

Search for Another Location

Airport or City:

Trip Planner

Search our weather history database for the weather conditions in past years. The results will help you decide how hot, cold, wet, or windy it might be!

Date:

Astronomy

Apr. 29, 2013 Rise Set
Actual Time 6:19 AM CDT 8:22 PM CDT
Civil Twilight 5:48 AM CDT 8:53 PM CDT
Nautical Twilight 5:10 AM CDT 9:32 PM CDT
Astronomical Twilight 4:28 AM CDT 10:14 PM CDT
Moon No Moon Rise 9:38 AM CDT (4/29)
Length of Visible Light 15h 05m
Length of Day
14h 03m
Waning Gibbous, 80% of the Moon is Illuminated
Apr 29
Waning Gibbous
May 2
Last Quarter
May 9
New
May 17
First Quarter
May 24
Full

Hourly Weather History & Observations

Time (CDT) Temp. Windchill Dew Point Humidity Pressure Visibility Wind Dir Wind Speed Gust Speed Precip Events Conditions
12:15 AM 59.0 °F - 46.4 °F 63% 29.77 in - East 9.2 mph - N/A   Mostly Cloudy
12:35 AM 59.0 °F - 48.2 °F 67% 29.81 in 10.0 mi NNW 16.1 mph 21.9 mph N/A   Overcast
12:55 AM 57.2 °F - 50.0 °F 77% 29.80 in 10.0 mi North 15.0 mph 20.7 mph N/A   Overcast
1:15 AM 55.4 °F - 51.8 °F 88% 29.80 in 10.0 mi NNE 13.8 mph - N/A   Mostly Cloudy
1:35 AM 53.6 °F - 50.0 °F 88% 29.80 in 10.0 mi NNE 12.7 mph - N/A   Mostly Cloudy
1:55 AM 51.8 °F - 50.0 °F 94% 29.80 in 10.0 mi NE 11.5 mph - N/A   Partly Cloudy
2:15 AM 51.8 °F - 50.0 °F 94% 29.80 in 10.0 mi NNE 9.2 mph - N/A   Clear
2:35 AM 50.0 °F - 50.0 °F 100% 29.82 in 10.0 mi NNW 8.1 mph - N/A   Clear
2:55 AM 50.0 °F - 48.2 °F 94% 29.82 in 10.0 mi North 10.4 mph - N/A   Clear
3:15 AM 48.2 °F - 48.2 °F 100% 29.80 in 10.0 mi North 10.4 mph - N/A   Clear
3:35 AM 48.2 °F - 46.4 °F 93% 29.81 in 10.0 mi North 11.5 mph - N/A   Clear
3:55 AM 48.2 °F - 44.6 °F 87% 29.81 in 10.0 mi NNE 9.2 mph - N/A   Clear
4:15 AM 46.4 °F 42.4 °F 42.8 °F 87% 29.82 in 10.0 mi North 8.1 mph - N/A   Partly Cloudy
4:35 AM 44.6 °F 39.7 °F 42.8 °F 93% 29.81 in 10.0 mi NNE 9.2 mph - N/A   Partly Cloudy
4:55 AM 44.6 °F 40.2 °F 41.0 °F 87% 29.81 in 10.0 mi NNE 8.1 mph - N/A   Scattered Clouds
5:15 AM 44.6 °F 40.2 °F 41.0 °F 87% 29.82 in 10.0 mi North 8.1 mph - N/A   Partly Cloudy
5:35 AM 44.6 °F 39.7 °F 39.2 °F 81% 29.82 in 10.0 mi North 9.2 mph - N/A   Partly Cloudy
5:55 AM 44.6 °F 40.2 °F 39.2 °F 81% 29.82 in 10.0 mi NNE 8.1 mph - N/A   Scattered Clouds
6:15 AM 44.6 °F 38.4 °F 37.4 °F 76% 29.82 in 10.0 mi NNE 12.7 mph - N/A   Partly Cloudy
6:35 AM 42.8 °F 36.6 °F 37.4 °F 81% 29.83 in 10.0 mi NNE 11.5 mph - N/A   Clear
6:55 AM 42.8 °F 37.0 °F 37.4 °F 81% 29.82 in 10.0 mi NNE 10.4 mph - N/A   Partly Cloudy
7:35 AM 42.8 °F 36.6 °F 37.4 °F 81% 29.83 in 10.0 mi NNE 11.5 mph - N/A   Clear
7:55 AM 46.4 °F 40.7 °F 39.2 °F 76% 29.81 in 10.0 mi NE 12.7 mph - N/A   Clear
8:15 AM 46.4 °F 39.5 °F 39.2 °F 76% 29.81 in 10.0 mi NE 17.3 mph - N/A   Clear
8:35 AM 50.0 °F - 41.0 °F 71% 29.80 in 10.0 mi NE 17.3 mph - N/A   Clear
8:55 AM 51.8 °F - 41.0 °F 67% 29.80 in 10.0 mi NE 17.3 mph - N/A   Clear
9:15 AM 53.6 °F - 42.8 °F 67% 29.79 in 10.0 mi ENE 16.1 mph - N/A   Clear
9:35 AM 55.4 °F - 42.8 °F 63% 29.78 in - ENE 15.0 mph - N/A   Clear
9:55 AM 57.2 °F - 44.6 °F 63% 29.77 in 10.0 mi ENE 11.5 mph 18.4 mph N/A   Clear
10:15 AM 59.0 °F - 44.6 °F 59% 29.76 in 10.0 mi East 11.5 mph 18.4 mph N/A   Clear
10:35 AM 60.8 °F - 46.4 °F 59% 29.75 in 10.0 mi ENE 12.7 mph - N/A   Clear
10:55 AM 62.6 °F - 46.4 °F 55% 29.75 in 10.0 mi East 11.5 mph - N/A   Clear
11:15 AM 64.4 °F - 46.4 °F 52% 29.74 in 10.0 mi East 8.1 mph - N/A   Clear
11:35 AM 66.2 °F - 46.4 °F 49% 29.73 in 10.0 mi East 9.2 mph 15.0 mph N/A   Clear
11:55 AM 68.0 °F - 46.4 °F 46% 29.71 in 10.0 mi East 9.2 mph - N/A   Clear
12:15 PM 69.8 °F - 46.4 °F 43% 29.71 in 10.0 mi SE 6.9 mph 13.8 mph N/A   Clear
12:35 PM 69.8 °F - 48.2 °F 46% 29.70 in 10.0 mi ESE 9.2 mph - N/A   Clear
12:55 PM 71.6 °F - 46.4 °F 41% 29.68 in 10.0 mi SE 8.1 mph 15.0 mph N/A   Clear
1:15 PM 73.4 °F - 48.2 °F 41% 29.67 in 10.0 mi SE 6.9 mph 13.8 mph N/A   Clear
1:35 PM 73.4 °F - 46.4 °F 38% 29.68 in 10.0 mi SE 10.4 mph - N/A   Clear
1:55 PM 73.4 °F - 46.4 °F 38% 29.68 in 10.0 mi SSE 8.1 mph - N/A   Clear
2:15 PM 75.2 °F - 46.4 °F 36% 29.67 in 10.0 mi SE 11.5 mph - N/A   Clear
2:35 PM 75.2 °F - 46.4 °F 36% 29.66 in 10.0 mi SSE 11.5 mph 17.3 mph N/A   Clear
2:55 PM 75.2 °F - 46.4 °F 36% 29.65 in 10.0 mi Variable 5.8 mph 19.6 mph N/A   Clear
3:15 PM 77.0 °F - 46.4 °F 34% 29.65 in 10.0 mi SSW 16.1 mph - N/A   Clear
3:35 PM 75.2 °F - 44.6 °F 34% 29.64 in 10.0 mi Variable 5.8 mph 15.0 mph N/A   Clear
3:55 PM 77.0 °F - 46.4 °F 34% 29.63 in 10.0 mi South 12.7 mph 18.4 mph N/A   Clear
4:15 PM 77.0 °F - 46.4 °F 34% 29.62 in 10.0 mi South 15.0 mph 21.9 mph N/A   Clear
4:35 PM 77.0 °F - 46.4 °F 34% 29.61 in 10.0 mi South 15.0 mph - N/A   Partly Cloudy
4:55 PM 77.0 °F - 44.6 °F 32% 29.60 in 10.0 mi SSW 9.2 mph 17.3 mph N/A   Partly Cloudy
5:15 PM 78.8 °F - 46.4 °F 32% 29.59 in 10.0 mi SE 10.4 mph 19.6 mph N/A   Mostly Cloudy
5:35 PM 78.8 °F - 48.2 °F 34% 29.58 in 10.0 mi SE 12.7 mph 19.6 mph N/A   Mostly Cloudy
5:55 PM 78.8 °F - 48.2 °F 34% 29.56 in 10.0 mi SSE 16.1 mph - N/A   Partly Cloudy
6:15 PM 77.0 °F - 46.4 °F 34% 29.56 in 10.0 mi SSE 16.1 mph - N/A   Clear
6:35 PM 77.0 °F - 46.4 °F 34% 29.55 in 10.0 mi South 13.8 mph 23.0 mph N/A   Clear
6:55 PM 77.0 °F - 46.4 °F 34% 29.55 in 10.0 mi South 13.8 mph 20.7 mph N/A   Clear
7:15 PM 75.2 °F - 46.4 °F 36% 29.54 in 10.0 mi South 13.8 mph - N/A   Clear
7:35 PM 75.2 °F - 46.4 °F 36% 29.54 in 10.0 mi South 11.5 mph - N/A   Clear
7:55 PM 73.4 °F - 46.4 °F 38% 29.54 in 10.0 mi South 10.4 mph - N/A   Clear
8:15 PM 69.8 °F - 46.4 °F 43% 29.53 in 10.0 mi SSE 9.2 mph - N/A   Clear
8:35 PM 68.0 °F - 46.4 °F 46% 29.53 in 10.0 mi South 6.9 mph - N/A   Clear
8:55 PM 68.0 °F - 46.4 °F 46% 29.54 in 10.0 mi SSE 8.1 mph - N/A   Clear
9:15 PM 66.2 °F - 46.4 °F 49% 29.54 in 10.0 mi Calm Calm - N/A   Clear
9:35 PM 64.4 °F - 46.4 °F 52% 29.53 in - East 5.8 mph - N/A   Clear
9:55 PM 62.6 °F - 46.4 °F 55% 29.52 in 10.0 mi ESE 9.2 mph - N/A   Scattered Clouds
10:35 PM 62.6 °F - 46.4 °F 55% 29.50 in 10.0 mi SE 10.4 mph - N/A   Scattered Clouds
10:55 PM 60.8 °F - 46.4 °F 59% 29.49 in 10.0 mi ESE 10.4 mph - N/A   Clear
11:15 PM 60.8 °F - 48.2 °F 63% 29.48 in 10.0 mi ESE 11.5 mph - N/A   Clear
11:35 PM 60.8 °F - 48.2 °F 63% 29.47 in 10.0 mi SE 9.2 mph - N/A   Clear
11:55 PM 59.0 °F - 48.2 °F 67% 29.46 in 10.0 mi ESE 10.4 mph - N/A   Clear